Location: B�rgermoos
(47.6500°N, 9.0667°E)
Time: 12:01:26
(UTC+00:00)

Transit 2A Rocket - All Passes

Search period start: 02 August 2021 00:00
Search period end: 12 August 2021 00:00
Orbit: 589 x 913 km, 66.7° (Epoch: 02 August)

Date Brightness Start Highest point End Pass type
(mag) Time Alt. Az. Time Alt. Az. Time Alt. Az.
02 Aug - 13:09:19 10° SSW 13:13:42 62° ESE 13:18:29 10° NE daylight
02 Aug - 14:52:55 10° W 14:56:43 25° NW 15:00:48 10° NNE daylight
02 Aug - 18:25:17 10° N 18:26:24 11° NNE 18:27:33 10° NNE daylight
02 Aug - 20:06:22 10° NNW 20:10:53 26° NE 20:15:41 10° E visible
02 Aug - 21:48:30 10° NW 21:54:01 78° WSW 21:59:57 10° SSE visible
02 Aug - 23:32:57 10° WNW 23:35:54 14° WSW 23:38:55 10° SW visible
03 Aug - 12:27:11 10° S 12:31:14 35° ESE 12:35:35 10° NE daylight
03 Aug - 14:09:34 10° WSW 14:13:47 36° NW 14:18:21 10° NNE daylight
03 Aug - 15:56:04 10° NW 15:57:57 12° NNW 15:59:52 10° N daylight
03 Aug - 19:23:58 10° NNW 19:27:51 20° NNE 19:31:55 10° ENE visible
03 Aug - 21:05:52 10° NNW 21:11:21 70° NE 21:17:16 10° SE visible
03 Aug - 22:49:11 10° WNW 22:53:35 24° WSW 22:58:10 10° SSW visible
04 Aug - 11:45:35 10° SSE 11:48:54 21° ESE 11:52:22 10° ENE daylight
04 Aug - 13:26:32 10° SW 13:30:57 56° NW 13:35:49 10° NNE daylight
04 Aug - 15:11:56 10° WNW 15:14:44 15° NNW 15:17:39 10° N daylight
04 Aug - 18:41:38 10° N 18:44:42 15° NNE 18:47:53 10° ENE daylight
04 Aug - 20:23:19 10° NNW 20:28:35 47° NE 20:34:15 10° ESE visible
04 Aug - 22:06:03 10° NW 22:11:09 37° WSW 22:16:34 10° S visible
05 Aug - 11:05:12 10° ESE 11:06:40 11° ESE 11:08:10 10° E daylight
05 Aug - 12:43:47 10° SSW 12:48:16 88° SE 12:53:11 10° NE daylight
05 Aug - 14:28:06 10° W 14:31:36 20° NNW 14:35:19 10° NNE daylight
05 Aug - 17:59:23 10° N 18:01:27 12° NNE 18:03:36 10° NE daylight
05 Aug - 19:40:50 10° NNW 19:45:43 33° NE 19:50:57 10° ESE visible
05 Aug - 21:23:10 10° NW 21:28:38 59° WSW 21:34:29 10° SSE visible
06 Aug - 12:01:24 10° SSW 12:05:43 51° ESE 12:10:26 10° NE daylight
06 Aug - 13:44:34 10° W 13:48:34 28° NW 13:52:54 10° NNE daylight
06 Aug - 15:31:48 10° NNW 15:32:59 11° NNW 15:34:10 10° N daylight
06 Aug - 17:17:32 10° N 17:18:09 10° NNE 17:18:46 10° NNE daylight
06 Aug - 18:58:24 10° NNW 19:02:45 24° NE 19:07:21 10° E daylight
06 Aug - 20:40:27 10° NW 20:46:02 90° WSW 20:52:00 10° SSE visible
06 Aug - 22:24:23 10° WNW 22:28:02 17° WSW 22:31:46 10° SW visible
07 Aug - 11:19:25 10° S 11:23:18 29° ESE 11:27:27 10° NE daylight
07 Aug - 13:01:20 10° WSW 13:05:40 42° NW 13:10:25 10° NNE daylight
07 Aug - 14:47:24 10° NW 14:49:42 13° NNW 14:52:06 10° N daylight
07 Aug - 18:16:01 10° NNW 18:19:40 18° NNE 18:23:30 10° ENE daylight
07 Aug - 19:57:51 10° NNW 20:03:19 61° NE 20:09:12 10° SE visible
07 Aug - 21:40:56 10° NW 21:45:40 28° WSW 21:50:38 10° SSW visible
08 Aug - 10:38:06 10° SSE 10:41:00 17° ESE 10:44:02 10° ENE daylight
08 Aug - 12:18:23 10° SW 12:22:53 68° NW 12:27:50 10° NNE daylight
08 Aug - 14:03:24 10° WNW 14:06:31 17° NNW 14:09:48 10° NNE daylight
08 Aug - 17:33:41 10° N 17:36:29 14° NNE 17:39:24 10° NE daylight
08 Aug - 19:15:19 10° NNW 19:20:31 41° NE 19:26:05 10° ESE visible
08 Aug - 20:57:54 10° NW 21:03:13 44° WSW 21:08:51 10° S visible
09 Aug - 11:35:46 10° SSW 11:40:15 73° ESE 11:45:10 10° NE daylight
09 Aug - 13:19:41 10° W 13:23:25 23° NW 13:27:25 10° NNE daylight
09 Aug - 16:51:27 10° N 16:53:13 11° NNE 16:55:01 10° NE daylight
09 Aug - 18:32:52 10° NNW 18:37:37 29° NE 18:42:40 10° E daylight
09 Aug - 20:15:05 10° NW 20:20:40 69° WSW 20:26:37 10° SSE visible
09 Aug - 22:00:07 10° W 22:02:25 12° WSW 22:04:46 10° SW visible
10 Aug - 10:53:31 10° S 10:57:45 42° ESE 11:02:20 10° NE daylight
10 Aug - 12:36:15 10° WSW 12:40:26 32° NW 12:44:58 10° NNE daylight
10 Aug - 14:22:58 10° NW 14:24:43 12° NNW 14:26:30 10° N daylight
10 Aug - 17:50:26 10° NNW 17:54:36 22° NE 17:58:59 10° E daylight
10 Aug - 19:32:25 10° NNW 19:38:01 79° NE 19:44:00 10° SE visible
10 Aug - 21:15:59 10° WNW 21:20:09 21° WSW 21:24:26 10° SSW visible
11 Aug - 10:11:44 10° SSE 10:15:22 24° ESE 10:19:15 10° NE daylight
11 Aug - 11:53:07 10° SW 11:57:34 50° NW 12:02:27 10° NNE daylight
11 Aug - 13:38:47 10° WNW 13:41:28 14° NNW 13:44:16 10° N daylight
11 Aug - 17:08:04 10° NNW 17:11:28 17° NNE 17:15:03 10° ENE daylight
11 Aug - 18:49:51 10° NNW 18:55:17 53° NE 19:01:05 10° SE daylight
11 Aug - 20:32:43 10° NW 20:37:45 33° WSW 20:43:02 10° S visible
